Poughkeepsie, NY

3:33 PM EDT on June 25, 2017 (GMT -0400)
Dutchess County

Weather History for KPOU - March, 2012

Change the Weather History Date:

Wednesday, March 14, 2012

  Actual Average Record
Temperature  
Mean Temperature 54 °F 36 °F  
Max Temperature 68 °F 47 °F 75 °F (2007)
Min Temperature 39 °F 25 °F 15 °F (2003)
Degree Days  
Heating Degree Days 11 29  
Month to date heating degree days 296 436  
Since 1 July heating degree days 3987 5007  
Cooling Degree Days 0 0  
Month to date cooling degree days 0 0  
Year to date cooling degree days 0 0  
Growing Degree Days 4 (Base 50)    
Moisture  
Dew Point 32 °F    
Average Humidity 54    
Maximum Humidity 93    
Minimum Humidity 15    
Precipitation  
Precipitation 0.00 in 0.11 in 1.36 in (1958)
Month to date precipitation 0.61 1.53  
Year to date precipitation 4.22 7.27  
Sea Level Pressure  
Sea Level Pressure 30.08 in    
Wind  
Wind Speed 5 mph (WNW)    
Max Wind Speed 20 mph    
Max Gust Speed 25 mph    
Visibility 10 miles    
Events      
T = Trace of Precipitation, MM = Missing Value Source: NWS Daily Summary

Daily Weather History Graph

Daily Weather History Graph

Search for Another Location

Airport or City:

Trip Planner

Search our weather history database for the weather conditions in past years. The results will help you decide how hot, cold, wet, or windy it might be!

Date:

Astronomy

Mar. 14, 2012 Rise Set
Actual Time 7:08 AM EDT 7:01 PM EDT
Civil Twilight 6:40 AM EDT 7:29 PM EDT
Nautical Twilight 6:08 AM EDT 8:01 PM EDT
Astronomical Twilight 5:35 AM EDT 8:34 PM EDT
Moon 1:39 AM EDT (3/14) 11:11 AM EDT (3/14)
Length of Visible Light 12h 48m
Length of Day
11h 53m
Waning Gibbous, 54% of the Moon is Illuminated
Mar 14
Waning Gibbous
Mar 14
Last Quarter
Mar 22
New
Mar 30
First Quarter
Apr 6
Full

Hourly Weather History & Observations

Time (EDT) Temp. Dew Point Humidity Pressure Visibility Wind Dir Wind Speed Gust Speed Precip Events Conditions
12:53 AM 54.0 °F 46.0 °F 75% 29.94 in 10.0 mi Calm Calm - N/A   Clear
1:53 AM 48.9 °F 45.0 °F 86% 29.96 in 10.0 mi Calm Calm - N/A   Clear
2:53 AM 46.9 °F 44.1 °F 90% 29.99 in 10.0 mi Calm Calm - N/A   Clear
3:53 AM 44.6 °F 41.0 °F 87% 29.99 in 9.0 mi Calm Calm - N/A   Clear
4:53 AM 41.0 °F 37.9 °F 89% 30.00 in 9.0 mi Calm Calm - N/A   Clear
5:53 AM 41.0 °F 39.0 °F 93% 30.03 in 6.0 mi Calm Calm - N/A   Clear
6:53 AM 41.0 °F 39.0 °F 93% 30.05 in 10.0 mi Calm Calm - N/A   Clear
7:53 AM 41.0 °F 37.9 °F 89% 30.08 in 10.0 mi Calm Calm - N/A   Clear
8:53 AM 48.9 °F 44.1 °F 83% 30.10 in 8.0 mi Calm Calm - N/A   Clear
9:53 AM 59.0 °F 41.0 °F 51% 30.11 in 10.0 mi NNE 6.9 mph - N/A   Clear
10:53 AM 61.0 °F 30.9 °F 32% 30.11 in 10.0 mi NW 9.2 mph - N/A   Clear
11:53 AM 62.1 °F 32.0 °F 32% 30.11 in 10.0 mi West 8.1 mph - N/A   Clear
12:53 PM 64.0 °F 28.0 °F 26% 30.09 in 10.0 mi WNW 6.9 mph 19.6 mph N/A   Clear
1:53 PM 66.0 °F 26.1 °F 22% 30.07 in 10.0 mi West 11.5 mph - N/A   Clear
2:53 PM 68.0 °F 21.0 °F 17% 30.06 in 10.0 mi West 16.1 mph 24.2 mph N/A   Clear
3:53 PM 68.0 °F 19.9 °F 16% 30.06 in 10.0 mi WNW 11.5 mph 21.9 mph N/A   Clear
4:53 PM 66.9 °F 19.9 °F 17% 30.06 in 10.0 mi West 9.2 mph 21.9 mph N/A   Clear
5:53 PM 66.0 °F 19.9 °F 17% 30.08 in 10.0 mi West 13.8 mph 18.4 mph N/A   Clear
6:53 PM 63.0 °F 19.0 °F 18% 30.10 in 10.0 mi WNW 8.1 mph - N/A   Clear
7:53 PM 60.1 °F 17.1 °F 19% 30.13 in 10.0 mi WNW 4.6 mph - N/A   Clear
8:53 PM 52.0 °F 25.0 °F 35% 30.15 in 10.0 mi NNE 3.5 mph - N/A   Clear
9:53 PM 46.9 °F 27.0 °F 46% 30.16 in 10.0 mi Calm Calm - N/A   Clear
10:53 PM 46.0 °F 30.0 °F 54% 30.19 in 10.0 mi Calm Calm - N/A   Clear
11:53 PM 42.1 °F 30.9 °F 65% 30.20 in 10.0 mi Calm Calm - N/A   Clear